Aérodrome de Lacave le Frau

FR-0394 · Occitanie, France

October 6, 2022

Time Code Weather Temp. Visibility Ceiling Wind METAR/SPECI
05:00
M
14 °C 10 km+ 2,600 ft 110° 110° 2 kt METAR LFSL 060300Z AUTO 11002KT 9999 FEW020 BKN026 BKN031 14/13 Q1028
04:30
V
14 °C 10 km+ - Var 000° 0 kt METAR LFSL 060230Z AUTO 00000KT CAVOK 14/13 Q1028
04:00
M
15 °C 10 km+ 2,300 ft 130° 130° 3 kt METAR LFSL 060200Z AUTO 13003KT 9999 BKN023 BKN064 15/13 Q1028
03:30
M
16 °C 10 km+ 2,300 ft 140° 140° 3 kt METAR LFSL 060130Z AUTO 14003KT 9999 OVC023 16/13 Q1028
03:00
M
15 °C 10 km+ 2,400 ft Var Var 3 kt METAR LFSL 060100Z AUTO VRB03KT 9999 OVC024 15/13 Q1028
02:30
M
14 °C 10 km+ 2,700 ft 110° 110° 1 kt METAR LFSL 060030Z AUTO 11001KT 9999 OVC027 14/13 Q1028
02:00
M
14 °C 10 km+ 2,900 ft 130° 130° 2 kt METAR LFSL 060000Z AUTO 13002KT 9999 OVC029 14/12 Q1028
01:30
V
15 °C 10 km+ - 130° 130° 1 kt METAR LFSL 052330Z AUTO 13001KT 9999 SCT029 15/13 Q1028
01:00
V
16 °C 10 km+ - 140° 140° 4 kt METAR LFSL 052300Z AUTO 14004KT CAVOK 16/13 Q1028
00:30
V
16 °C 10 km+ - 140° 140° 5 kt METAR LFSL 052230Z AUTO 14005KT CAVOK 16/13 Q1027
00:00
V
16 °C 10 km+ - 150° 150° 3 kt METAR LFSL 052200Z AUTO 15003KT 9999 FEW041 16/13 Q1028

October 5, 2022

Time Code Weather Temp. Visibility Ceiling Wind METAR/SPECI
23:30
V
18 °C 10 km+ - Var Var 2 kt METAR LFSL 052130Z AUTO VRB02KT CAVOK 18/13 Q1027
23:00
V
18 °C 10 km+ - 150° 150° 5 kt METAR LFSL 052100Z AUTO 15005KT CAVOK 18/14 Q1027
22:30
V
18 °C 10 km+ - 140° 140° 5 kt METAR LFSL 052030Z AUTO 14005KT 110V170 CAVOK 18/14 Q1026
22:00
V
16 °C 10 km+ - 140° 140° 2 kt METAR LFSL 052000Z AUTO 14002KT CAVOK 16/13 Q1026 TEMPO BKN010
21:30
V
16 °C 10 km+ - Var Var 3 kt METAR LFSL 051930Z AUTO VRB03KT CAVOK 16/13 Q1025 TEMPO BKN010
21:00
V
16 °C 10 km+ - Var Var 3 kt METAR LFSL 051900Z AUTO VRB03KT CAVOK 16/13 Q1025 NOSIG
20:30
V
16 °C 10 km+ - Var 000° 0 kt METAR LFSL 051830Z AUTO 00000KT CAVOK 16/12 Q1024 NOSIG
20:00
V
18 °C 10 km+ - Var 000° 0 kt METAR LFSL 051800Z AUTO 00000KT CAVOK 18/13 Q1024 NOSIG
19:30
V
20 °C 10 km+ - Var 000° 0 kt METAR LFSL 051730Z AUTO 00000KT CAVOK 20/13 Q1023 NOSIG
19:00
V
23 °C 10 km+ - 200° 200° 1 kt METAR LFSL 051700Z AUTO 20001KT CAVOK 23/13 Q1023 NOSIG
18:30
V
24 °C 10 km+ - 200° 200° 3 kt METAR LFSL 051630Z AUTO 20003KT 170V240 CAVOK 24/12 Q1023 NOSIG
18:00
V
26 °C 10 km+ - 190° 190° 5 kt METAR LFSL 051600Z AUTO 19005KT 140V260 CAVOK 26/12 Q1022 NOSIG
17:30
V
26 °C 10 km+ - 180° 180° 7 kt METAR LFSL 051530Z AUTO 18007KT CAVOK 26/11 Q1022 NOSIG
17:00
V
26 °C 10 km+ - 210° 210° 6 kt METAR LFSL 051500Z AUTO 21006KT 150V250 CAVOK 26/10 Q1022 NOSIG
16:30
V
26 °C 10 km+ - 160° 160° 7 kt METAR LFSL 051430Z AUTO 16007KT 110V200 CAVOK 26/10 Q1022 NOSIG
16:00
V
26 °C 10 km+ - 170° 170° 7 kt METAR LFSL 051400Z AUTO 17007KT 110V210 CAVOK 26/10 Q1022 NOSIG
15:30
V
25 °C 10 km+ - 150° 150° 7 kt METAR LFSL 051330Z AUTO 15007KT 110V210 CAVOK 25/11 Q1022 NOSIG
15:00
V
25 °C 10 km+ - 160° 160° 9 kt METAR LFSL 051300Z AUTO 16009KT 110V210 CAVOK 25/11 Q1022 NOSIG
14:30
V
25 °C 10 km+ - 170° 170° 8 kt METAR LFSL 051230Z AUTO 17008KT 120V200 CAVOK 25/12 Q1022 NOSIG
14:00
V
24 °C 10 km+ - 160° 160° 8 kt METAR LFSL 051200Z AUTO 16008KT 110V210 CAVOK 24/12 Q1023 NOSIG
13:30
V
23 °C 10 km+ - 160° 160° 9 kt METAR LFSL 051130Z AUTO 16009KT 100V210 CAVOK 23/12 Q1023 NOSIG
13:00
V
23 °C 10 km+ - 160° 160° 9 kt METAR LFSL 051100Z AUTO 16009KT CAVOK 23/12 Q1023 NOSIG
12:30
V
22 °C 10 km+ - 140° 140° 7 kt METAR LFSL 051030Z AUTO 14007KT 100V180 CAVOK 22/13 Q1023 NOSIG
12:00
V
21 °C 10 km+ - 130° 130° 7 kt METAR LFSL 051000Z AUTO 13007KT 100V190 CAVOK 21/13 Q1023 NOSIG
11:30
V
19 °C 10 km+ - 140° 140° 8 kt METAR LFSL 050930Z AUTO 14008KT CAVOK 19/13 Q1023 NOSIG
11:00
V
18 °C 10 km+ - 130° 130° 7 kt METAR LFSL 050900Z AUTO 13007KT 100V180 CAVOK 18/13 Q1023 NOSIG
10:30
V
16 °C 10 km+ - 110° 110° 7 kt METAR LFSL 050830Z AUTO 11007KT CAVOK 16/13 Q1023 NOSIG
10:00
V
15 °C 10 km+ - 120° 120° 6 kt METAR LFSL 050800Z AUTO 12006KT CAVOK 15/12 Q1023 NOSIG
09:30
V
14 °C 10 km+ - 120° 120° 5 kt METAR LFSL 050730Z AUTO 12005KT CAVOK 14/12 Q1023 NOSIG
09:00
V
12 °C 10 km+ - Var Var 2 kt METAR LFSL 050700Z AUTO VRB02KT CAVOK 12/11 Q1023 NOSIG
08:30
V
10 °C 10 km+ - 130° 130° 2 kt METAR LFSL 050630Z AUTO 13002KT CAVOK 10/10 Q1022 NOSIG
08:00
V
9 °C 10 km+ - 140° 140° 3 kt METAR LFSL 050600Z AUTO 14003KT CAVOK 09/09 Q1022 TEMPO 4000 BR
07:30
V
10 °C 10 km+ - 130° 130° 3 kt METAR LFSL 050530Z AUTO 13003KT CAVOK 10/09 Q1022 TEMPO 4000 BR
07:00
V
10 °C 10 km+ - 150° 150° 3 kt METAR LFSL 050500Z AUTO 15003KT CAVOK 10/09 Q1022 TEMPO 3000 BR
06:30
V
10 °C 10 km+ - 140° 140° 2 kt METAR LFSL 050430Z AUTO 14002KT CAVOK 10/09 Q1022 TEMPO 3000 BR
06:00
V
11 °C 10 km+ - 130° 130° 3 kt METAR LFSL 050400Z AUTO 13003KT CAVOK 11/10 Q1022 TEMPO 3000 BR
05:30
V
8 °C 10 km+ - 140° 140° 3 kt METAR LFSL 050330Z AUTO 14003KT CAVOK 08/08 Q1022 TEMPO 3000 BR
05:00
V
9 °C 10 km+ - 140° 140° 2 kt METAR LFSL 050300Z AUTO 14002KT CAVOK 09/08 Q1022 TEMPO 3000 BR
04:30
V
9 °C 10 km+ - 130° 130° 1 kt METAR LFSL 050230Z AUTO 13001KT CAVOK 09/08 Q1022
04:00
V
9 °C 10 km+ - 130° 130° 1 kt METAR LFSL 050200Z AUTO 13001KT CAVOK 09/08 Q1022
03:30
V
9 °C 10 km+ - Var 000° 0 kt METAR LFSL 050130Z AUTO 00000KT CAVOK 09/09 Q1022
03:00
V
9 °C 10 km+ - Var 000° 0 kt METAR LFSL 050100Z AUTO 00000KT CAVOK 09/08 Q1022
02:30
V
9 °C 10 km+ - Var 000° 0 kt METAR LFSL 050030Z AUTO 00000KT CAVOK 09/08 Q1022
02:00
V
9 °C 10 km+ - Var 000° 0 kt METAR LFSL 050000Z AUTO 00000KT CAVOK 09/08 Q1022
01:30
V
10 °C 10 km+ - Var 000° 0 kt METAR LFSL 042330Z AUTO 00000KT CAVOK 10/09 Q1023
01:00
V
9 °C 10 km+ - Var 000° 0 kt METAR LFSL 042300Z AUTO 00000KT CAVOK 09/08 Q1023
00:30
V
10 °C 10 km+ - Var 000° 0 kt METAR LFSL 042230Z AUTO 00000KT CAVOK 10/09 Q1023
00:00
V
10 °C 10 km+ - Var 000° 0 kt METAR LFSL 042200Z AUTO 00000KT CAVOK 10/09 Q1023

October 4, 2022

Time Code Weather Temp. Visibility Ceiling Wind METAR/SPECI
23:30
V
11 °C 10 km+ - Var 000° 0 kt METAR LFSL 042130Z AUTO 00000KT CAVOK 11/09 Q1023
23:00
V
11 °C 10 km+ - Var 000° 0 kt METAR LFSL 042100Z AUTO 00000KT CAVOK 11/10 Q1023
22:30
V
11 °C 10 km+ - Var 000° 0 kt METAR LFSL 042030Z AUTO 00000KT CAVOK 11/10 Q1023 NOSIG
22:00
V
12 °C 10 km+ - 120° 120° 1 kt METAR LFSL 042000Z AUTO 12001KT CAVOK 12/11 Q1023 NOSIG
21:30
V
13 °C 10 km+ - Var 000° 0 kt METAR LFSL 041930Z AUTO 00000KT CAVOK 13/11 Q1022 NOSIG
21:00
V
14 °C 10 km+ - Var 000° 0 kt METAR LFSL 041900Z AUTO 00000KT CAVOK 14/12 Q1022 NOSIG
20:30
V
15 °C 10 km+ - Var 000° 0 kt METAR LFSL 041830Z AUTO 00000KT CAVOK 15/12 Q1022 NOSIG
20:00
V
17 °C 10 km+ - 300° 300° 3 kt METAR LFSL 041800Z AUTO 30003KT CAVOK 17/12 Q1022 NOSIG
19:30
V
18 °C 10 km+ - 280° 280° 4 kt METAR LFSL 041730Z AUTO 28004KT CAVOK 18/13 Q1022 NOSIG
19:00
V
20 °C 10 km+ - Var Var 1 kt METAR LFSL 041700Z AUTO VRB01KT CAVOK 20/12 Q1021 NOSIG
18:30
V
22 °C 10 km+ - Var Var 3 kt METAR LFSL 041630Z AUTO VRB03KT CAVOK 22/11 Q1021 NOSIG
18:00
V
23 °C 10 km+ - Var Var 2 kt METAR LFSL 041600Z AUTO VRB02KT CAVOK 23/11 Q1021 NOSIG
17:30
V
23 °C 10 km+ - Var Var 2 kt METAR LFSL 041530Z AUTO VRB02KT CAVOK 23/10 Q1021 NOSIG
17:00
V
23 °C 10 km+ - Var Var 3 kt METAR LFSL 041500Z AUTO VRB03KT CAVOK 23/11 Q1021 NOSIG
16:30
V
24 °C 10 km+ - 220° 220° 4 kt METAR LFSL 041430Z AUTO 22004KT 140V290 CAVOK 24/12 Q1021 NOSIG
16:00
V
23 °C 10 km+ - Var Var 4 kt METAR LFSL 041400Z AUTO VRB04KT CAVOK 23/11 Q1021 NOSIG
15:30
V
22 °C 10 km+ - Var Var 3 kt METAR LFSL 041330Z AUTO VRB03KT CAVOK 22/12 Q1021 NOSIG
15:00
V
22 °C 10 km+ - 170° 170° 3 kt METAR LFSL 041300Z AUTO 17003KT 090V250 CAVOK 22/12 Q1021 NOSIG
14:30
V
22 °C 10 km+ - Var Var 3 kt METAR LFSL 041230Z AUTO VRB03KT CAVOK 22/12 Q1021 NOSIG
14:00
V
22 °C 10 km+ - 170° 170° 5 kt METAR LFSL 041200Z AUTO 17005KT 130V240 CAVOK 22/12 Q1022 NOSIG
13:30
V
21 °C 10 km+ - Var Var 4 kt METAR LFSL 041130Z AUTO VRB04KT CAVOK 21/12 Q1022 NOSIG
13:00
V
20 °C 10 km+ - Var Var 3 kt METAR LFSL 041100Z AUTO VRB03KT CAVOK 20/12 Q1022 NOSIG
12:30
V
19 °C 10 km+ - Var Var 3 kt METAR LFSL 041030Z AUTO VRB03KT CAVOK 19/13 Q1022 NOSIG
12:00
V
18 °C 10 km+ - Var Var 2 kt METAR LFSL 041000Z AUTO VRB02KT CAVOK 18/12 Q1022 NOSIG
11:30
V
17 °C 10 km+ - Var Var 3 kt METAR LFSL 040930Z AUTO VRB03KT CAVOK 17/12 Q1022 NOSIG
11:00
V
16 °C 10 km+ - 120° 120° 3 kt METAR LFSL 040900Z AUTO 12003KT 090V190 CAVOK 16/12 Q1022 NOSIG
10:30
V
14 °C 10 km+ - 110° 110° 5 kt METAR LFSL 040830Z AUTO 11005KT CAVOK 14/11 Q1022 NOSIG
10:00
V
13 °C 10 km+ - 130° 130° 4 kt METAR LFSL 040800Z AUTO 13004KT 100V180 CAVOK 13/11 Q1022 NOSIG
09:30
V
12 °C 10 km+ - 120° 120° 3 kt METAR LFSL 040730Z AUTO 12003KT CAVOK 12/11 Q1021 NOSIG
09:00
V
10 °C 10 km+ - 120° 120° 2 kt METAR LFSL 040700Z AUTO 12002KT CAVOK 10/09 Q1021 NOSIG
08:30
L
8 °C 2.2 km - 120° 120° 2 kt METAR LFSL 040630Z AUTO 12002KT 2200 BR VV/// 08/08 Q1021 BECMG CAVOK
08:00
L
7 °C 10 km+ - 120° 120° 2 kt METAR LFSL 040600Z AUTO 12002KT 9999 VV/// 07/07 Q1021 TEMPO 0800 FG BECMG NSC
07:30
V
7 °C 10 km+ - 120° 120° 2 kt METAR LFSL 040530Z AUTO 12002KT CAVOK 07/07 Q1021 TEMPO 0800 FG VV///
07:00
V
8 °C 10 km+ - 130° 130° 2 kt METAR LFSL 040500Z AUTO 13002KT CAVOK 08/07 Q1021 TEMPO 0800 FG VV///
06:30
L
8 °C 10 km+ - 120° 120° 2 kt METAR LFSL 040430Z AUTO 12002KT 9999 VV/// 08/07 Q1020 TEMPO 0800 FG
06:00
L
8 °C 1.3 km - 120° 120° 2 kt METAR LFSL 040400Z AUTO 12002KT 9999 1300 R29/1800D VV/// 08/07 Q1020 TEMPO 0800 FG
05:30
L
8 °C 10 km+ - Var 000° 0 kt METAR LFSL 040330Z AUTO 00000KT 9999 VV/// 08/07 Q1020 TEMPO 0800 FG
05:00
L
8 °C 3.2 km - Var 000° 0 kt METAR LFSL 040300Z AUTO 00000KT 9999 3200 VV/// 08/07 Q1020 TEMPO 0800 FG
04:30
L
8 °C 10 km+ - Var 000° 0 kt METAR LFSL 040230Z AUTO 00000KT 9999 VV/// 08/07 Q1020
04:00
V
8 °C 10 km+ - Var 000° 0 kt METAR LFSL 040200Z AUTO 00000KT CAVOK 08/08 Q1021
03:30
V
8 °C 10 km+ - Var 000° 0 kt METAR LFSL 040130Z AUTO 00000KT CAVOK 08/08 Q1021
03:00
V
9 °C 10 km+ - Var 000° 0 kt METAR LFSL 040100Z AUTO 00000KT CAVOK 09/08 Q1021
02:30
V
9 °C 10 km+ - Var 000° 0 kt METAR LFSL 040030Z AUTO 00000KT CAVOK 09/08 Q1021
02:00
V
9 °C 10 km+ - Var 000° 0 kt METAR LFSL 040000Z AUTO 00000KT CAVOK 09/08 Q1021
01:30
V
9 °C 10 km+ - 200° 200° 1 kt METAR LFSL 032330Z AUTO 20001KT CAVOK 09/09 Q1021
01:00
V
10 °C 10 km+ - Var 000° 0 kt METAR LFSL 032300Z AUTO 00000KT CAVOK 10/09 Q1021
00:30
V
10 °C 10 km+ - Var 000° 0 kt METAR LFSL 032230Z AUTO 00000KT CAVOK 10/09 Q1021
00:00
V
11 °C 10 km+ - Var 000° 0 kt METAR LFSL 032200Z AUTO 00000KT CAVOK 11/10 Q1022

October 3, 2022

Time Code Weather Temp. Visibility Ceiling Wind METAR/SPECI
23:30
V
11 °C 10 km+ - Var 000° 0 kt METAR LFSL 032130Z AUTO 00000KT CAVOK 11/10 Q1022
23:00
V
11 °C 10 km+ - Var 000° 0 kt METAR LFSL 032100Z AUTO 00000KT CAVOK 11/11 Q1022
22:30
V
12 °C 10 km+ - Var 000° 0 kt METAR LFSL 032030Z AUTO 00000KT CAVOK 12/11 Q1021
22:00
V
12 °C 10 km+ - Var 000° 0 kt METAR LFSL 032000Z AUTO 00000KT CAVOK 12/11 Q1021 NOSIG
21:30
V
13 °C 10 km+ - Var 000° 0 kt METAR LFSL 031930Z AUTO 00000KT CAVOK 13/11 Q1021 NOSIG
Older data

We and third parties follow your internet behavior on our website with cookies. If you continue, we assume you agree with our cookie policy. Learn more